Погода в Томторе

Россия / Республика Саха (Якутия)     62°39′20″N   132°55′19″E
темп.,
°C
ветер,
м/с
пор.,
м/с
влажн.,
%
обл.,
%
осадки,
мм/ч
давл.,
гПа
погр.,
м
9 декабря, чт
чт900:00−32всв3698100 0.1 1020185
03:00−31всв369899 0.1 1019199
06:00−29всв2698100 0.1 1018174
09:00−29всв2698100 0.1 1018177
12:00−27св259881 0.0 1017155
15:00−30ссв1110097 0.1 10189
18:00−32ссз1110087 0.0 10199
21:00−31з1110099 0.0 102133
10 декабря, пт
пт1000:00−30зюз249993 0.0 102373
03:00−27зюз2498100 0.1 1024125
06:00−27ююз1399100 0.1 1025106
09:00−29ю1199100 0.1 102835
12:00−27ююв129699 0.1 1029126
15:00−26вюв129899 0.1 1029102
18:00−28вюв1210093 0.1 103140
21:00−26в129999 0.1 103188
11 декабря, сб
сб1100:00−25в139992 0.1 1031101
03:00−25всв139985 0.1 103182
06:00−27в1310079 0.1 103256
09:00−28в1110079 0.1 103231
12:00−26в139969 0.1 103297
15:00−28в1110085 0.1 103228
18:00−31в1110085 0.0 10339
21:00−32в11100100 0.1 10339
12 декабря, вс
вс1200:00−31в1110098 0.0 103320
03:00−32в1110088 0.1 10339
06:00−33в1110087 0.0 10339
09:00−36в11100100 0.1 10339
12:00−32в12100100 0.0 103252
15:00−35в1110096 0.0 10319
18:00−38в1110088 0.0 10319
21:00−38всв11100100 0.0 102922
13 декабря, пн
пн1300:00−35всв12100100 0.0 102741
03:00−31всв2396100 0.0 102588
06:00−30всв1496100 0.0 102378
09:00−29всв1394100 0.0 102287
12:00−27всв1391100 0.0 1020105
15:00−26св1494100 0.0 1020104
18:00−26всв1398100 0.1 1020121
21:00−25в1299100 0.2 102088